Gatesville, TX

4:01 PM CDT on August 22, 2017 (GMT -0500)
Gatesville

Weather History for KGOP - April, 2014

Change the Weather History Date:

Friday, April 4, 2014

  Actual Average (KHLR) Record (KHLR)
Temperature  
Mean Temperature 58 °F -  
Max Temperature 71 °F 73 °F 87 °F (2003)
Min Temperature 46 °F 55 °F 45 °F (2013)
Degree Days  
Heating Degree Days 6    
Growing Degree Days 8 (Base 50)    
Moisture  
Dew Point 33 °F    
Average Humidity 40    
Maximum Humidity 58    
Minimum Humidity 24    
Precipitation  
Precipitation 0.00 in - - ()
Sea Level Pressure  
Sea Level Pressure 30.10 in    
Wind  
Wind Speed 11 mph (NNE)    
Max Wind Speed 20 mph    
Max Gust Speed 29 mph    
Visibility 10 miles    
Events      
Averages and records for this station are not official NWS values.
T = Trace of Precipitation, MM = Missing Value Source: NWS Daily Summary

Daily Weather History Graph

Daily Weather History Graph

Search for Another Location

Airport or City:

Trip Planner

Search our weather history database for the weather conditions in past years. The results will help you decide how hot, cold, wet, or windy it might be!

Date:

Astronomy

Apr. 04, 2014 Rise Set
Actual Time 7:16 AM CDT 7:52 PM CDT
Civil Twilight 6:51 AM CDT 8:17 PM CDT
Nautical Twilight 6:22 AM CDT 8:46 PM CDT
Astronomical Twilight 5:53 AM CDT 9:15 PM CDT
Moon 10:47 AM CDT (4/4) No Moon Set
Length of Visible Light 13h 25m
Length of Day
12h 36m
Waxing Crescent, 25% of the Moon is Illuminated
Apr 4
Waxing Crescent
Apr 7
First Quarter
Apr 15
Full
Apr 22
Last Quarter
Apr 29
New

Hourly Weather History & Observations

Time (CDT) Temp. Windchill Dew Point Humidity Pressure Visibility Wind Dir Wind Speed Gust Speed Precip Events Conditions
12:15 AM 71.6 °F - 48.2 °F 43% 29.89 in 10.0 mi NNW 9.2 mph - N/A   Clear
12:35 AM 69.8 °F - 41.0 °F 35% 29.90 in 9.0 mi NNW 11.5 mph 18.4 mph N/A   Clear
12:55 AM 68.0 °F - 35.6 °F 30% 29.91 in 10.0 mi North 9.2 mph - N/A   Clear
1:15 AM 66.2 °F - 33.8 °F 30% 29.91 in 10.0 mi NNW 11.5 mph 17.3 mph N/A   Clear
1:35 AM 66.2 °F - 32.0 °F 28% 29.92 in 10.0 mi North 13.8 mph - N/A   Clear
1:55 AM 64.4 °F - 37.4 °F 37% 29.93 in 9.0 mi North 19.6 mph 28.8 mph N/A   Clear
2:15 AM 62.6 °F - 37.4 °F 39% 29.95 in 10.0 mi North 17.3 mph 28.8 mph N/A   Clear
2:35 AM 60.8 °F - 39.2 °F 45% 29.98 in 10.0 mi North 17.3 mph 27.6 mph N/A   Clear
2:55 AM 59.0 °F - 39.2 °F 48% 30.01 in 10.0 mi North 8.1 mph 20.7 mph N/A   Clear
3:15 AM 59.0 °F - 39.2 °F 48% 30.04 in 10.0 mi NNW 12.7 mph 18.4 mph N/A   Partly Cloudy
3:35 AM 57.2 °F - 37.4 °F 48% 30.06 in 10.0 mi North 3.5 mph - N/A   Partly Cloudy
3:55 AM 57.2 °F - 37.4 °F 48% 30.04 in 10.0 mi North 12.7 mph 16.1 mph N/A   Clear
4:15 AM 55.4 °F - 37.4 °F 51% 30.05 in 10.0 mi North 12.7 mph 18.4 mph N/A   Clear
4:35 AM 55.4 °F - 35.6 °F 47% 30.08 in 10.0 mi North 15.0 mph 20.7 mph N/A   Clear
4:55 AM 53.6 °F - 33.8 °F 47% 30.08 in 10.0 mi North 12.7 mph 18.4 mph N/A   Clear
5:15 AM 53.6 °F - 33.8 °F 47% 30.05 in 10.0 mi North 18.4 mph 21.9 mph N/A   Clear
5:35 AM 51.8 °F - 32.0 °F 47% 30.06 in 10.0 mi North 19.6 mph 25.3 mph N/A   Clear
5:55 AM 50.0 °F - 32.0 °F 50% 30.06 in 10.0 mi North 16.1 mph 24.2 mph N/A   Clear
6:15 AM 48.2 °F - 32.0 °F 54% 30.08 in 10.0 mi North 18.4 mph 26.5 mph N/A   Clear
6:35 AM 48.2 °F - 32.0 °F 54% 30.09 in 10.0 mi North 17.3 mph 24.2 mph N/A   Clear
6:55 AM 48.2 °F - 32.0 °F 54% 30.10 in 10.0 mi North 17.3 mph 25.3 mph N/A   Clear
7:15 AM 46.4 °F 39.5 °F 32.0 °F 57% 30.10 in 10.0 mi North 17.3 mph 23.0 mph N/A   Clear
7:35 AM 46.4 °F 39.8 °F 32.0 °F 57% 30.12 in 10.0 mi North 16.1 mph 21.9 mph N/A   Clear
7:55 AM 46.4 °F 40.1 °F 32.0 °F 57% 30.14 in 10.0 mi North 15.0 mph 18.4 mph N/A   Clear
8:15 AM 46.4 °F 40.4 °F 32.0 °F 57% 30.15 in 10.0 mi North 13.8 mph 20.7 mph N/A   Clear
8:35 AM 48.2 °F - 32.0 °F 54% 30.16 in 10.0 mi North 12.7 mph 21.9 mph N/A   Clear
8:55 AM 50.0 °F - 32.0 °F 50% 30.17 in 10.0 mi North 11.5 mph 19.6 mph N/A   Clear
9:15 AM 50.0 °F - 32.0 °F 50% 30.17 in 10.0 mi North 12.7 mph 21.9 mph N/A   Clear
9:35 AM 51.8 °F - 32.0 °F 47% 30.17 in 10.0 mi North 13.8 mph 21.9 mph N/A   Clear
9:55 AM 51.8 °F - 32.0 °F 47% 30.18 in 10.0 mi North 15.0 mph 24.2 mph N/A   Clear
10:15 AM 53.6 °F - 32.0 °F 44% 30.19 in 10.0 mi North 11.5 mph 24.2 mph N/A   Clear
10:35 AM 53.6 °F - 32.0 °F 44% 30.19 in 10.0 mi North 13.8 mph 19.6 mph N/A   Clear
10:55 AM 55.4 °F - 32.0 °F 41% 30.20 in 10.0 mi NNE 13.8 mph 23.0 mph N/A   Clear
11:15 AM 57.2 °F - 32.0 °F 38% 30.20 in 10.0 mi North 12.7 mph 21.9 mph N/A   Clear
11:35 AM 57.2 °F - 32.0 °F 38% 30.21 in 10.0 mi North 10.4 mph - N/A   Clear
11:55 AM 59.0 °F - 30.2 °F 34% 30.20 in 10.0 mi North 10.4 mph 19.6 mph N/A   Clear
12:15 PM 60.8 °F - 32.0 °F 34% 30.20 in 10.0 mi NNE 11.5 mph 20.7 mph N/A   Clear
12:35 PM 60.8 °F - 32.0 °F 34% 30.19 in 10.0 mi North 15.0 mph 23.0 mph N/A   Clear
1:15 PM 62.6 °F - 30.2 °F 30% 30.18 in 10.0 mi NE 11.5 mph 17.3 mph N/A   Clear
1:35 PM 64.4 °F - 28.4 °F 26% 30.17 in 10.0 mi North 13.8 mph 19.6 mph N/A   Clear
1:55 PM 64.4 °F - 28.4 °F 26% 30.17 in 10.0 mi NNE 11.5 mph 19.6 mph N/A   Clear
2:15 PM 64.4 °F - 30.2 °F 28% 30.17 in 10.0 mi NNE 8.1 mph 17.3 mph N/A   Clear
2:35 PM 64.4 °F - 28.4 °F 26% 30.15 in 10.0 mi NE 12.7 mph 18.4 mph N/A   Clear
2:55 PM 64.4 °F - 30.2 °F 28% 30.14 in 10.0 mi NE 8.1 mph 17.3 mph N/A   Clear
3:15 PM 66.2 °F - 30.2 °F 26% 30.13 in 10.0 mi NNE 5.8 mph 18.4 mph N/A   Clear
3:55 PM 66.2 °F - 28.4 °F 24% 30.10 in 10.0 mi ENE 12.7 mph 18.4 mph N/A   Clear
4:15 PM 66.2 °F - 30.2 °F 26% 30.10 in 10.0 mi East 11.5 mph 17.3 mph N/A   Clear
4:35 PM 66.2 °F - 30.2 °F 26% 30.10 in 10.0 mi NE 8.1 mph 16.1 mph N/A   Clear
4:55 PM 68.0 °F - 30.2 °F 24% 30.09 in 10.0 mi NE 11.5 mph 16.1 mph N/A   Clear
5:15 PM 66.2 °F - 30.2 °F 26% 30.09 in 10.0 mi NE 10.4 mph 16.1 mph N/A   Clear
5:35 PM 66.2 °F - 30.2 °F 26% 30.08 in 10.0 mi NE 11.5 mph 16.1 mph N/A   Clear
5:55 PM 66.2 °F - 30.2 °F 26% 30.08 in 10.0 mi NE 8.1 mph - N/A   Clear
6:15 PM 66.2 °F - 30.2 °F 26% 30.08 in 10.0 mi NE 9.2 mph - N/A   Clear
6:35 PM 66.2 °F - 32.0 °F 28% 30.08 in 10.0 mi NE 8.1 mph - N/A   Clear
6:55 PM 64.4 °F - 32.0 °F 30% 30.08 in 10.0 mi ENE 5.8 mph - N/A   Clear
7:15 PM 64.4 °F - 32.0 °F 30% 30.09 in 10.0 mi ENE 6.9 mph - N/A   Clear
7:35 PM 62.6 °F - 32.0 °F 32% 30.09 in 10.0 mi Calm Calm - N/A   Clear
7:55 PM 60.8 °F - 32.0 °F 34% 30.09 in 10.0 mi Calm Calm - N/A   Clear
8:15 PM 60.8 °F - 32.0 °F 34% 30.10 in 10.0 mi Calm Calm - N/A   Clear
8:35 PM 60.8 °F - 32.0 °F 34% 30.10 in 10.0 mi Calm Calm - N/A   Clear
8:55 PM 57.2 °F - 32.0 °F 38% 30.11 in 10.0 mi Calm Calm - N/A   Clear
9:15 PM 57.2 °F - 33.8 °F 41% 30.11 in 10.0 mi Calm Calm - N/A   Clear
9:35 PM 57.2 °F - 33.8 °F 41% 30.12 in 10.0 mi Calm Calm - N/A   Clear
9:55 PM 57.2 °F - 33.8 °F 41% 30.13 in 10.0 mi East 3.5 mph - N/A   Clear
10:15 PM 55.4 °F - 33.8 °F 44% 30.13 in 10.0 mi Calm Calm - N/A   Clear
10:35 PM 55.4 °F - 35.6 °F 47% 30.14 in 10.0 mi Calm Calm - N/A   Clear
10:55 PM 53.6 °F - 35.6 °F 51% 30.14 in 10.0 mi Calm Calm - N/A   Clear
11:15 PM 53.6 °F - 33.8 °F 47% 30.14 in 10.0 mi Calm Calm - N/A   Clear
11:35 PM 53.6 °F - 35.6 °F 51% 30.14 in 10.0 mi Calm Calm - N/A   Clear
11:55 PM 51.8 °F - 37.4 °F 58% 30.13 in 10.0 mi Calm Calm - N/A   Clear